Showing default

QIANFAN-43, 62244

Orbit data source: Space-Track

QIANFAN-43, 62244 is a Chinese payload satellite in LEO that was launched on Thu, 05 Dec 2024 UTC via a CHANG ZHENG 6A launch vehicle from the Taiyaun Space Center, China (TSC). Payload-class satellites include a variety of spacecraft equipped with specific instruments for various scientific and technological missions. These include communications satellites like Starlink; space stations such as the ISS; scientific satellites like the Hubble; Earth observation satellites from companies like Planet Labs, Umbra, and HawkEye 360; GPS; miniature CubeSats for education and research; and military/defense satellites.

Loading next visibility...
Identifier
62244, 2024-232H
Orbit
LEO
Country
Flag of CNCN / PRC
Related business
Manufacturer
SECM
Mission
Operational Commercial Communications
Bus & Motor
QIANFAN, Unknown motor
Mass
267 kg wet, ~267 kg dry
Launch date (UTC)
2024-12-05 (10 months ago)
Launch vehicle
CHANG ZHENG 6A
Launch site
Taiyaun Space Center, China (TSC)
Object type
Payload
Rocket body
Debris
Shape & HBR
Box + 1 Pan, 5.0 m
Radar Cross Section
13.200 m², Large (>1 m²)

Expand to show TLE details & history
Last TLE update: 16 hours ago

TLE from 16 hours ago
0 QIANFAN-43
1 62244U 24232H   25287.95076478  .00000160  00000-0  22955-3 0  9994
2 62244  89.0026  47.1787 0015383  13.2776 346.8777 13.50978502 59922
Epoch: 2025-10-14T22:49Z
TLE epoch observation values (Epoch: 2025-10-14T22:49:06.076Z)
Latitude
-0.00005°
Longitude
41.17155°
Altitude
1,060.456 km
Speed
7.327 km/s
True Right ascension
03h 08m 42s
True Declination
0° 00' 00"
Sunlit
Object was in full shadow at epoch
Visualization orbit readout
Latitude
Unknown
Longitude
Unknown
Altitude
Unknown
Speed
Unknown
Apparent Right ascension
Unknown
Apparent Declination
Unknown
Sunlit
N/A
Visualization observer readout
Local Sidereal Time
09:05:32
Azimuth
Unknown
Elevation
Unknown
Doppler factor
Unknown
Orbital elements
Apogee altitude
1,077.163 km
Perigee altitude
1,054.261 km
Semi-major axis
7,443.849 km
Eccentricity
0.00154
Inclination
89.0026°
RAAN
47.1787°
Arg. of periapsis
13.2776°
True anomaly
346.8376°
Mean anomaly
346.8777°
Eccentric anomaly
346.85766°
Mean motion
3.37946 °/min
Orbital period
106.53 mins
BSTAR
0.00022955
Loading maneuver chart data...
Computing Atmospheric mass density...
Loading historical data...
Loading historical data...
Loading historical data...
Loading historical data...
Loading historical data...
Loading historical data...
Loading historical data...

Documentation

Showing up to 5 results
|